Weather History for Columbus, GA

Change the Weather History Date:

Monday, December 31, 2012

  Actual Average Record
Temperature  
Mean Temperature 46 °F 47 °F  
Max Temperature 58 °F 57 °F 79 °F (1984)
Min Temperature 33 °F 37 °F 18 °F (1983)
Degree Days  
Heating Degree Days 19 18  
Month to date heating degree days 333 496  
Since 1 July heating degree days 663 829  
Cooling Degree Days 0 0  
Month to date cooling degree days 4 4  
Year to date cooling degree days 2618 2368  
Moisture  
Dew Point 34 °F    
Average Humidity 62    
Maximum Humidity 82    
Minimum Humidity 41    
Precipitation  
Precipitation 0.00 in 0.12 in 2.05 in (1989)
Month to date precipitation 5.23 4.27  
Year to date precipitation 35.21 46.75  
Snow  
Snow 0.00 in 0.00 in 0.00 in (2001)
Month to date snowfall 0.0 0.1  
Since 1 July snowfall 0.0 0.1  
Snow Depth -    
Sea Level Pressure  
Sea Level Pressure 30.31 in    
Wind  
Wind Speed 2 mph (SW)    
Max Wind Speed 10 mph    
Max Gust Speed 13 mph    
Visibility 10 miles    
Events      
T = Trace of Precipitation, MM = Missing Value Source: NWS Daily Summary

Daily Weather History Graph

Daily Weather History Graph

Search for Another Location

Airport:

Trip Planner

Search our weather history database for the weather conditions in past years. The results will help you decide how hot, cold, wet, or windy it might be!

Date:

Astronomy

Dec. 31, 2012 Rise Set
Actual Time 7:41 AM EST 5:44 PM EST
Civil Twilight 7:14 AM EST 6:11 PM EST
Nautical Twilight 6:43 AM EST 6:42 PM EST
Astronomical Twilight 6:13 AM EST 7:12 PM EST
Moon 9:02 PM EST (12/31) 9:33 AM EST (12/31)
Length of Visible Light 10h 57m
Length of Day
10h 03m
Waning Gibbous, 90% of the Moon is Illuminated
Dec 31
Waning Gibbous
Jan 4
Last Quarter
Jan 11
New
Jan 18
First Quarter
Jan 26
Full

Hourly Weather History & Observations

Time (EST) Temp. Windchill Dew Point Humidity Pressure Visibility Wind Dir Wind Speed Gust Speed Precip Events Conditions
12:51 AM 36.0 °F - 27.0 °F 70% 30.40 in 10.0 mi Calm Calm - N/A   Clear
1:51 AM 36.0 °F - 28.0 °F 73% 30.39 in 10.0 mi Calm Calm - N/A   Clear
2:51 AM 36.0 °F - 26.1 °F 67% 30.38 in 10.0 mi Calm Calm - N/A   Clear
3:51 AM 37.0 °F - 26.1 °F 65% 30.40 in 10.0 mi Calm Calm - N/A   Clear
4:51 AM 36.0 °F - 28.0 °F 73% 30.39 in 10.0 mi Calm Calm - N/A   Clear
5:51 AM 33.8 °F - 28.4 °F 81% 30.38 in 10.0 mi Calm Calm - N/A   Clear
6:51 AM 35.1 °F 32.2 °F 28.0 °F 76% 30.40 in 10.0 mi East 3.5 mph - N/A   Clear
7:51 AM 34.0 °F - 28.0 °F 79% 30.39 in 10.0 mi Calm Calm - N/A   Clear
8:51 AM 37.0 °F - 27.0 °F 67% 30.40 in 10.0 mi Calm Calm - N/A   Clear
9:51 AM 43.0 °F - 28.0 °F 56% 30.41 in 10.0 mi Calm Calm - N/A   Clear
10:51 AM 48.0 °F - 28.9 °F 48% 30.39 in 10.0 mi Calm Calm - N/A   Clear
11:51 AM 51.1 °F - 30.0 °F 44% 30.37 in 10.0 mi SSW 8.1 mph - N/A   Clear
12:51 PM 54.0 °F - 30.9 °F 41% 30.32 in 10.0 mi SW 5.8 mph - N/A   Scattered Clouds
1:51 PM 55.9 °F - 34.0 °F 44% 30.28 in 10.0 mi Calm Calm - N/A   Mostly Cloudy
2:51 PM 57.0 °F - 37.0 °F 47% 30.26 in 10.0 mi West 6.9 mph - N/A   Overcast
3:51 PM 57.0 °F - 37.0 °F 47% 30.25 in 10.0 mi West 6.9 mph - N/A   Mostly Cloudy
4:51 PM 57.9 °F - 39.0 °F 49% 30.25 in 10.0 mi WNW 4.6 mph - N/A   Partly Cloudy
5:51 PM 55.9 °F - 41.0 °F 57% 30.25 in 10.0 mi Calm Calm - N/A   Mostly Cloudy
6:51 PM 53.1 °F - 41.0 °F 64% 30.25 in 10.0 mi Calm Calm - N/A   Mostly Cloudy
7:51 PM 52.0 °F - 42.1 °F 69% 30.24 in 10.0 mi Calm Calm - N/A   Mostly Cloudy
8:51 PM 51.1 °F - 42.1 °F 71% 30.23 in 10.0 mi ESE 4.6 mph - N/A   Overcast
9:51 PM 50.0 °F - 42.1 °F 74% 30.21 in 9.0 mi East 3.5 mph - N/A   Mostly Cloudy
10:51 PM 51.1 °F - 41.0 °F 68% 30.19 in 10.0 mi Calm Calm - N/A   Overcast
11:35 PM 51.8 °F - 41.0 °F 67% 30.18 in 10.0 mi Calm Calm - N/A   Mostly Cloudy
11:51 PM 51.1 °F - 41.0 °F 68% 30.17 in 10.0 mi Calm Calm - N/A   Overcast